Torna al catalogo

STARLINK-5634

AttivoComunicazioniVLEO
NORAD 55439·PAYLOAD·🇺🇸 United States

Lanciato Jan 31, 2023 da Vandenberg Space Force Base

Loading…

Prossimi Passaggi (prossime 24 ore)

TLE

AggiornatoSource: CelesTrak SupGP

Epoca: Sep 14, 2026, 21:54 UTC

1 55439C 23014BA  26257.91298611 -.00046088  00000+0 -38630-2 0  2571
2 55439  70.0018 347.4314 0003196 272.1118 342.9229 14.98346701    16

Traccia STARLINK-5634 in tempo reale con AllMySat

Download on the App Store